Location: Brotuna
(46.2000°N, 22.6000°E)
Time: 06:54:20
(UTC+00:00)

Daily predictions for brighter satellites

Satellite Brightness Start Highest point End
(mag) Time Altitude Azimuth Time Altitude Azimuth Time Altitude Azimuth
Nadezhda 1 Rocket 4.4 17:34:07 10° SSE 17:40:08 45° E 17:46:07 10° NNE
IRIDIUM 106 4.3 17:36:58 10° N 17:42:12 75° E 17:47:25 10° S
CZ-2C R/B 3.9 17:39:22 10° NE 17:43:00 19° E 17:46:38 10° SE
Resurs 01 Rocket 3.3 17:40:55 10° ESE 17:43:50 18° ENE 17:46:46 10° NNE
NOSS 3-4 (A) 3.9 17:39:07 10° NW 17:46:07 78° NE 17:53:50 10° SE
NOSS 3-4 (C) 3.9 17:39:14 10° NW 17:46:14 77° NE 17:53:56 10° SE
Cosmos 2154 Rocket 4.3 17:40:34 10° N 17:46:46 52° ENE 17:52:53 10° SSE
Cosmos 1758 Rocket 3.6 17:42:47 10° N 17:47:08 88° W 17:51:26 10° S
SL-24 R/B - RUBIN 2 4.4 17:42:01 10° SSW 17:47:25 57° ESE 17:53:33 10° NE
SPOT 3 Rocket 4.2 17:43:36 10° SE 17:48:19 36° ENE 17:53:04 10° N
ARGOS 3.3 17:43:32 10° SSE 17:48:49 61° ENE 17:54:07 10° N
STARLINK-52 3.4 17:46:10 10° SSW 17:49:12 41° SE 17:52:16 10° ENE
GEOS 3 Rocket 3.8 17:47:53 10° SE 17:53:01 79° SW 17:58:17 10° NW
Cosmos 1606 Rocket 3.5 17:50:33 10° S 17:54:57 74° E 17:59:27 10° NNE
Cosmos 1953 Rocket 3.6 17:50:55 10° N 17:55:24 65° E 17:59:52 10° SSE
FALCON 9 DEB 3.4 17:53:15 10° SW 17:56:38 50° SE 18:00:03 10° ENE
Meteor 1-11 4.3 17:54:39 10° N 18:00:22 64° ENE 18:05:59 10° SSE
Cosmos 1818 4.2 17:56:09 10° SW 18:01:31 61° NW 18:06:56 10° NNE
CZ-4 R/B 4.3 17:59:56 10° SW 18:02:20 16° W 18:04:44 10° NW
Cosmos 1953 3.8 17:59:02 10° SSW 18:02:48 41° WNW 18:06:37 10° N
USA 186 1.7 18:00:36 10° SSE 18:03:54 89° WNW 18:07:02 10° NNW
Cosmos 2074 Rocket 4.3 17:59:33 10° NNW 18:05:52 76° W 18:12:08 10° S
STARLINK-67 2.6 18:04:45 10° WNW 18:07:17 62° SW 18:09:01 18° SE
STARLINK-1269 4.5 18:04:42 10° NW 18:08:39 41° NNE 18:12:05 13° E
STARLINK-1200 4.4 18:09:41 10° NW 18:13:40 43° NNE 18:16:52 15° E
USA 234 4.3 18:09:39 10° ENE 18:14:18 20° ESE 18:18:56 10° S
Cosmos 1980 Rocket 4.4 18:15:08 10° NNE 18:16:17 11° NNE 18:17:25 10° NE
ATLAS 2AS CENTAUR R/B 3.1 18:10:48 10° NW 18:18:20 70° WSW 18:25:12 10° SSE
SeaSat 1 3.5 18:13:45 10° NNE 18:18:30 48° NW 18:23:14 10° SW
STARLINK-1192 4.4 18:14:39 10° NW 18:18:39 45° NNE 18:21:39 16° E
STARLINK-1234 2.8 18:18:51 10° WNW 18:21:59 85° SW 18:23:38 25° SE
ATLAS 5 CENTAUR R/B 1.5 18:17:55 10° SW 18:22:03 90° ESE 18:26:45 10° NE
STARLINK-1209 2.8 18:19:19 10° WNW 18:22:27 80° SSW 18:24:05 25° SE
STARLINK-1233 2.9 18:19:43 10° WNW 18:22:52 74° NNE 18:24:29 26° ESE
H-2A R/B 2.6 18:18:04 10° S 18:23:11 59° W 18:28:11 10° NNW
STARLINK-1212 2.9 18:20:11 10° WNW 18:23:19 75° NNE 18:24:55 26° ESE
STARLINK-1244 4.3 18:19:43 10° NW 18:23:45 47° NNE 18:26:31 18° E
STARLINK-1105 2.9 18:20:37 10° WNW 18:23:47 76° NNE 18:25:21 26° ESE
STARLINK-1206 2.8 18:21:06 10° WNW 18:24:13 76° NNE 18:25:45 27° ESE
STARLINK-1247 2.8 18:21:33 10° WNW 18:24:41 77° NNE 18:26:12 27° ESE
STARLINK-1227 2.8 18:21:57 10° WNW 18:25:06 77° NNE 18:26:38 27° ESE
STARLINK-1218 2.8 18:22:27 10° WNW 18:25:36 78° NNE 18:27:04 28° ESE
COSMOS 2455 2.8 18:19:54 10° NNW 18:25:58 78° ENE 18:30:46 17° SE
STARLINK-1226 2.8 18:22:54 10° WNW 18:26:02 79° NNE 18:27:30 28° ESE
STARLINK-1254 2.8 18:23:19 10° WNW 18:26:28 79° NNE 18:27:57 28° ESE
Cosmos 1892 4.3 18:23:50 10° NNE 18:26:34 18° ENE 18:27:12 17° E
STARLINK-1215 2.8 18:23:48 10° WNW 18:26:56 80° NNE 18:28:22 29° ESE
STARLINK-1231 2.8 18:24:16 10° WNW 18:27:24 80° NNE 18:28:48 29° ESE
STARLINK-1232 2.8 18:25:10 10° WNW 18:28:18 82° NNE 18:29:41 30° ESE
STARLINK-1138 4.2 18:24:37 10° NW 18:28:40 49° NNE 18:31:13 20° E
STARLINK-1217 2.8 18:25:37 10° WNW 18:28:45 82° NNE 18:30:07 30° ESE
STARLINK-1208 2.8 18:26:02 10° WNW 18:29:11 83° NNE 18:30:33 31° ESE
Abrixas rocket 1.9 18:26:26 10° WNW 18:29:23 73° SSW 18:30:32 33° ESE
STARLINK-1229 2.8 18:26:31 10° WNW 18:29:38 84° NNE 18:30:58 31° ESE
STARLINK-1271 2.8 18:26:58 10° WNW 18:30:06 84° NNE 18:31:25 32° ESE
STARLINK-1270 2.8 18:27:25 10° WNW 18:30:33 85° NNE 18:31:51 32° ESE
STARLINK-1154 2.8 18:27:52 10° WNW 18:31:00 86° NNE 18:32:17 32° ESE
Cosmos 1140 Rocket 3.4 18:26:06 10° SSW 18:31:17 87° ESE 18:36:29 10° NNE
STARLINK-1197 2.8 18:28:46 10° WNW 18:31:54 87° NNE 18:33:09 33° ESE
STARLINK-1189 2.8 18:29:12 10° WNW 18:32:20 88° NNE 18:33:34 34° ESE
Ariane Rocket 4.2 18:27:44 10° S 18:32:30 42° W 18:37:19 10° NNW
STARLINK-1198 2.8 18:29:40 10° WNW 18:32:48 88° NNE 18:34:01 34° ESE
STARLINK-1188 2.8 18:30:06 10° WNW 18:33:15 89° NE 18:34:26 35° ESE
STARLINK-1143 4.1 18:29:35 10° NW 18:33:39 51° NNE 18:36:00 23° E
STARLINK-1235 2.9 18:30:46 10° WNW 18:33:55 72° SW 18:35:09 33° SE
STARLINK-1187 2.8 18:31:10 10° WNW 18:34:21 80° SSW 18:35:33 35° SE
STARLINK-1199 2.8 18:32:03 10° WNW 18:35:13 88° SSW 18:36:21 36° ESE
STARLINK-1191 2.8 18:32:30 10° WNW 18:35:39 87° SSW 18:36:47 36° ESE
STARLINK-1210 2.8 18:32:58 10° WNW 18:36:07 87° SSW 18:37:13 37° SE
STARLINK-1221 2.8 18:33:24 10° WNW 18:36:34 86° SSW 18:37:40 37° SE
STARLINK-1219 2.8 18:33:52 10° WNW 18:37:01 85° SSW 18:38:06 38° SE
STARLINK-1222 2.8 18:34:18 10° WNW 18:37:27 85° SSW 18:38:31 38° SE
STARLINK-1211 2.8 18:34:46 10° WNW 18:37:55 84° SW 18:38:58 39° SE
CZ-2C R/B 3.9 18:33:28 10° S 18:38:06 45° W 18:42:41 10° NNW
STARLINK-1214 2.8 18:35:13 10° WNW 18:38:22 83° SSW 18:39:24 39° SE
STARLINK-1241 4.0 18:34:36 10° NW 18:38:42 54° NNE 18:40:49 26° E
STARLINK-1245 2.8 18:35:41 10° WNW 18:38:49 83° SW 18:39:48 40° SE
STARLINK-1238 2.8 18:36:06 10° WNW 18:39:16 82° SSW 18:40:15 40° SE
STARLINK-1205 2.8 18:37:03 10° WNW 18:40:11 81° SSW 18:41:07 41° SE
ERBS 3.1 18:36:59 10° NW 18:40:12 40° NNE 18:41:22 29° ENE
STARLINK-1204 2.8 18:37:30 10° WNW 18:40:38 80° SSW 18:41:33 42° SE
STARLINK-1239 3.9 18:39:34 10° NW 18:43:40 57° NNE 18:45:35 29° E
Spot 2 Rocket 4.2 18:42:04 25° ESE 18:44:16 37° ENE 18:48:55 10° N
ATLAS CENTAUR R/B 3.4 18:42:20 10° N 18:44:26 14° NNE 18:45:59 12° ENE
SJ-6B 4.0 18:40:43 10° S 18:44:40 43° W 18:48:38 10° NNW
STARLINK-29 3.4 18:41:44 10° WSW 18:44:54 60° NNW 18:47:14 17° NE
Resurs 1-3 3.5 18:41:31 16° SSE 18:44:58 89° WNW 18:49:23 10° NNW
Cosmos 1190 Rocket 4.5 18:40:01 10° SSW 18:45:16 64° WNW 18:50:33 10° NNE
Cosmos 1300 2.5 18:43:12 11° S 18:46:55 75° E 18:50:45 10° NNE
SAR-Lupe-2 4.4 18:44:02 10° NNE 18:46:54 31° E 18:46:54 31° E
In-Cosmos 22 Rocket 4.5 18:42:02 10° N 18:47:46 54° ENE 18:50:57 26° SE
STARLINK-1240 3.9 18:44:32 10° NW 18:48:40 60° NNE 18:50:22 32° E
BREEZE-M DEB (TANK) 3.4 18:44:56 10° WNW 18:50:00 56° SSW 18:50:46 40° SSE
Terra 3.7 18:51:00 14° ENE 18:51:43 14° ENE 18:54:10 10° NNE
SL-24 R/B 4.2 18:47:54 10° N 18:51:51 62° WNW 18:55:30 10° SSW
SPOT 5 4.4 18:52:27 16° ENE 18:52:47 16° ENE 18:55:29 10° NNE
MetOp-B 4.4 18:50:54 28° SE 18:53:28 52° ENE 18:58:40 10° N
STARLINK-1216 3.8 18:49:31 10° WNW 18:53:38 64° NNE 18:55:08 36° E
STPSAT 2 (USA 217) 4.5 18:50:04 10° SSW 18:54:28 63° ESE 18:58:57 10° NNE
CZ-2C R/B 4.1 18:50:00 10° N 18:54:40 67° WNW 18:59:13 10° SSW
Cosmos 1833 Rocket 4.4 18:57:26 16° ENE 18:57:26 16° ENE 18:59:18 10° NE
STARLINK-1237 3.7 18:54:29 10° WNW 18:58:37 68° NNE 18:59:54 41° E
Cosmos 2058 Rocket 4.2 18:55:07 10° SSW 18:59:28 47° WNW 19:03:50 10° N
Cosmos 468 Rocket 4.1 18:55:28 10° NNW 19:00:33 54° ENE 19:02:21 36° ESE
Cosmos 192 4.3 18:57:33 10° NNW 19:02:31 68° ENE 19:04:21 38° SE
STARLINK-1202 3.6 18:59:28 10° WNW 19:03:37 73° NNE 19:04:42 47° E
STARLINK-1228 4.1 19:02:57 10° WNW 19:05:31 29° SW 19:05:31 29° SW
DMSP B5D2-2 4.2 19:00:37 10° N 19:05:51 75° WNW 19:11:04 10° SSW
Cosmos 921 Rocket 4.2 19:02:54 10° NW 19:06:47 38° WSW 19:09:43 16° SSW
Cosmos 2341 Rocket 4.2 19:01:15 10° NNW 19:07:38 73° W 19:13:22 13° S
ERS-1 Rocket 3.9 19:07:01 29° E 19:07:52 31° ENE 19:12:14 10° N
SL-4 R/B 3.1 19:06:19 10° WNW 19:09:26 33° N 19:10:56 23° NE
Meteor 2-12 Rocket 4.5 19:05:05 10° N 19:11:06 59° ENE 19:13:27 36° SE
CZ-4C R/B 3.9 19:06:09 10° NNW 19:12:22 35° NE 19:16:38 21° E
Cosmos 1408 3.9 19:10:05 10° N 19:12:35 28° NE 19:12:35 28° NE
STARLINK-1246 3.5 19:09:25 10° WNW 19:13:35 82° NNE 19:14:16 61° ESE
RESURS DK-1 3.2 19:10:17 10° NNW 19:14:07 35° NE 19:14:21 34° ENE
COSMOS 2406 3.4 19:13:01 37° SSE 19:14:33 45° ESE 19:19:57 10° NE
STARLINK-1201 3.8 19:11:36 10° WNW 19:14:33 43° SW 19:14:33 43° SW
STARLINK-1224 3.4 19:14:25 10° WNW 19:18:35 88° NE 19:19:04 69° ESE
Cosmos 2218 Rocket 3.9 19:12:37 10° N 19:18:53 87° E 19:22:17 29° S
Resurs 01 Rocket 2.1 19:17:44 27° SSW 19:19:54 56° W 19:24:16 10° NNW
Cosmos 2058 2.8 19:16:24 10° N 19:20:32 87° E 19:21:10 64° SSE
STARLINK-1203 3.5 19:16:34 10° WNW 19:20:47 84° SSW 19:21:13 70° SE
Cosmos 220 Rocket 4.1 19:16:45 10° NNW 19:21:05 70° WSW 19:22:11 48° S
MOS 1 Rocket 4.2 19:17:06 10° N 19:22:25 59° WNW 19:27:44 10° SSW
STARLINK-1225 3.4 19:19:25 10° WNW 19:23:35 87° SSW 19:23:51 77° SE
CZ-2C R/B 3.0 19:18:36 10° N 19:23:43 61° WNW 19:28:50 10° SSW
STARLINK-52 4.3 19:22:22 10° W 19:25:24 38° NNW 19:25:57 34° N
Cosmos 1812 Rocket 3.5 19:25:20 40° SSW 19:26:51 81° W 19:31:12 10° N
BREEZE M DEB (TANK) 3.1 19:23:59 10° WSW 19:27:31 81° SSE 19:38:35 10° ENE
STARLINK-1230 3.5 19:24:22 10° WNW 19:28:31 81° SW 19:28:37 80° S
SL-8 Rocket 4.3 19:24:51 10° NNW 19:31:07 66° W 19:35:13 23° S
Cosmos 2151 3.5 19:27:28 10° N 19:30:59 44° NE 19:30:59 44° NE
Cosmos 2369 4.2 19:26:12 10° NNW 19:31:37 44° NE 19:32:37 40° E
Cosmos 1697 Rocket 3.2 19:26:16 10° NNW 19:31:43 45° NE 19:32:44 41° E
Cosmos 864 Rocket 4.5 19:26:33 10° N 19:32:47 82° W 19:35:37 34° S
STARLINK-1243 3.6 19:29:21 10° WNW 19:33:24 75° SW 19:33:24 75° SW
Cosmos 2181 Rocket 4.3 19:29:19 10° SSW 19:35:31 65° W 19:41:40 10° N
USA 245 4.4 19:34:10 42° SSE 19:36:20 88° WSW 19:42:50 10° NNW
STARLINK-1236 3.7 19:34:20 10° WNW 19:38:11 67° WSW 19:38:11 67° WSW
Cosmos 1741 Rocket 4.0 19:41:05 28° SSW 19:43:59 85° WNW 19:49:21 10° NNE
Meteor 2-1 Rocket 4.4 19:41:06 25° SSW 19:44:41 78° WNW 19:50:40 10° N
Cosmos 2366 rocket 4.3 19:39:10 10° NNW 19:45:15 64° W 19:48:11 31° SSW
Cosmos 1076 Rocket 4.2 19:41:25 10° NNW 19:45:34 49° W 19:46:20 43° SW
Landsat 7 3.7 19:46:17 75° S 19:46:41 85° WSW 19:51:29 10° NNW
STARLINK-1269 4.2 19:44:18 10° WNW 19:47:44 52° W 19:47:44 52° W
Cosmos 1656 3.6 19:44:48 10° NNW 19:50:31 82° WSW 19:51:23 64° S
SPOT 1/Viking Rocket 3.4 19:50:06 70° SSE 19:50:44 90° E 19:56:01 10° NNW
Cosmos 1763 Rocket 3.5 19:45:39 10° NNW 19:50:49 69° WSW 19:51:29 61° SSW
SL-16 R/B 4.2 19:49:24 10° N 19:52:50 16° NE 19:54:20 15° ENE
STARLINK-1200 4.4 19:49:18 10° WNW 19:52:31 45° W 19:52:31 45° W
Cosmos 540 Rocket 3.5 19:49:24 10° NNW 19:54:30 65° ENE 19:54:30 65° ENE
Cosmos 1455 3.5 19:56:32 36° N 19:56:32 36° N 19:58:55 10° N
Cosmos 2208 Rocket 3.9 19:50:12 10° NNW 19:55:26 76° ENE 19:55:31 75° E
Nadezhda 3 Rocket 3.9 19:56:45 62° SE 19:57:24 66° E 20:03:37 10° NNE
USA 234 3.1 19:51:30 10° NE 19:58:03 72° SE 20:04:35 10° SW
Iridium 4 Rocket 3.8 19:54:46 10° NNW 19:58:45 44° W 19:59:06 43° WSW
Cosmos 2322 Rocket 4.2 19:56:33 10° N 19:59:49 15° NE 20:01:15 14° ENE
Cosmos 1980 Rocket 2.8 19:56:32 10° NNW 20:01:53 43° NE 20:02:02 43° ENE
Cosmos 1892 4.0 19:58:48 10° NNW 20:02:13 36° W 20:02:13 36° W
Cosmos 1814 Rocket 4.0 20:00:37 10° NNW 20:05:54 79° NE 20:05:54 79° NE
Cosmos 1825 3.6 20:03:21 10° N 20:05:39 35° NNW 20:05:39 35° NNW
ATLAS 5 CENTAUR R/B 4.3 20:04:09 10° WNW 20:07:27 20° NNW 20:11:04 10° NNE
Cosmos-2242 3.7 20:08:41 53° NNW 20:08:41 53° NNW 20:12:11 10° N
ASTEX 1 4.4 20:10:30 37° NE 20:10:30 37° NE 20:14:02 10° N
Cosmos 1356 Rocket 4.3 20:13:46 48° NW 20:13:46 48° NW 20:17:18 10° N
Meteor 2-3 Rocket 4.0 20:07:47 10° N 20:13:03 56° ENE 20:13:03 56° ENE
Cosmos 2239 Rocket 4.3 20:14:25 10° N 20:20:43 88° E 20:21:04 81° SSE
ATLAS CENTAUR R/B 3.1 20:20:11 10° NW 20:22:10 28° NNW 20:22:10 28° NNW
Cosmos 1821 Rocket 4.0 20:19:36 10° NNW 20:26:00 76° W 20:26:40 69° SW
Cosmos 1934 Rocket 3.9 20:20:55 10° N 20:26:55 70° ENE 20:26:55 70° ENE
Terra 2.4 20:29:52 54° NNW 20:29:52 54° NNW 20:33:36 10° NNW
Cosmos 2360 4.2 20:24:00 10° NNW 20:29:15 76° N 20:29:15 76° N
Cosmos 841 Rocket 4.0 20:24:48 10° NNW 20:29:32 56° W 20:29:32 56° W
SPOT 5 3.7 20:31:40 41° NW 20:31:40 41° NW 20:34:44 10° NNW
Mayak 1.1 20:27:24 10° NNE 20:28:23 16° NNE 20:28:23 16° NNE
Cosmos 2082 Rocket 3.1 20:34:09 39° NE 20:34:09 39° NE 20:37:44 10° NNE
Cosmos 2278 3.8 20:27:23 10° NNW 20:32:29 73° NNW 20:32:29 73° NNW
Meteor 2-10 Rocket 4.2 20:33:51 47° W 20:34:28 49° WNW 20:39:45 10° N
Cosmos 1833 Rocket 2.9 20:39:02 68° NW 20:39:02 68° NW 20:44:24 10° NNE
Cosmos 1605 Rocket 4.2 20:39:18 10° N 20:44:41 59° NE 20:44:41 59° NE
ERS-1 Rocket 4.1 20:47:01 36° W 20:47:01 36° W 20:51:13 10° NNW
CZ-4C R/B 2.8 20:54:25 10° NW 21:01:41 82° SW 21:01:49 81° SW
Cosmos 1697 Rocket 4.1 21:10:34 10° NW 21:14:29 29° W 21:14:29 29° W
SL-16 R/B 3.2 21:32:19 10° NNW 21:36:11 44° N 21:36:11 44° N
Cosmos 2360 Rocket 3.6 21:33:29 10° NNW 21:37:31 32° NNE 21:37:31 32° NNE
USA 234 4.0 21:34:39 10° NE 21:40:54 49° NNW 21:47:08 10° W
Cosmos 2322 Rocket 3.3 21:39:20 10° NNW 21:43:04 41° N 21:43:04 41° N
Cosmos 1980 Rocket 3.9 21:40:47 10° NW 21:43:48 26° WNW 21:43:48 26° WNW
Cosmos 2333 Rocket 4.0 21:55:58 10° N 22:00:27 23° NE 22:00:27 23° NE
Mayak 1.6 22:03:54 10° NNW 22:04:58 14° NW 22:04:58 14° NW
Cosmos 2082 Rocket 4.0 22:15:56 23° WNW 22:16:44 24° NW 22:21:14 10° N
Cosmos 2219 Rocket 3.6 22:30:37 10° NNW 22:34:41 33° NNE 22:34:41 33° NNE
COSMOS 2428 3.8 22:59:40 10° NNW 23:03:37 40° N 23:03:37 40° N
Cosmos 2360 Rocket 4.1 23:17:27 10° NW 23:19:17 20° NW 23:19:17 20° NW
CZ-2D R/B 3.8 23:18:10 10° NE 23:21:40 26° ENE 23:21:40 26° ENE
Cosmos 2285 Rocket 4.4 23:30:56 58° NE 23:30:56 58° NE 23:36:06 10° NNE
Cosmos 2333 Rocket 3.6 23:39:38 10° NNW 23:42:26 30° NW 23:42:26 30° NW
Cosmos 2237 Rocket 3.0 23:41:01 10° NNW 23:46:25 46° NE 23:46:25 46° NE
SL-16 R/B 2.8 23:48:42 65° NE 23:48:42 65° NE 23:54:36 10° N
Lacrosse 5 rocket 4.0 23:54:18 16° NNE 23:54:18 16° NNE 23:55:23 10° NE
